This is the latest recevied weather packets stored in our database for station/object OH2EGI-2. If no packets are shown the sender has not sent any weather packets the latest 10 day(s).
| Time | Temp. | Humidity | Pressure | Rain* | Wind** | Luminosity | Snow |
|---|---|---|---|---|---|---|---|
| 1777890400 | 9.44° C | 72% | 994.8 hPa | 0 mm | - | - | - |
| 1777890100 | 9.44° C | 72% | 994.9 hPa | 0 mm | - | - | - |
| 1777889800 | 9.44° C | 71% | 995 hPa | 0 mm | - | - | - |
| 1777889500 | 9.44° C | 70% | 995.3 hPa | 0 mm | - | - | - |
| 1777889200 | -30° C | 69% | 995.5 hPa | 0 mm | - | - | - |
| 1777888900 | 10° C | 68% | 995.6 hPa | 0 mm | - | - | - |
| 1777888600 | 10° C | 67% | 995.7 hPa | 0 mm | - | - | - |
| 1777888300 | 10° C | 65% | 995.7 hPa | 0 mm | - | - | - |
| 1777888000 | 10.56° C | 63% | 995.8 hPa | 0 mm | - | - | - |
| 1777887700 | 10.56° C | 61% | 995.9 hPa | 0 mm | - | - | - |
| 1777887400 | 11.11° C | 59% | 995.9 hPa | 0 mm | - | - | - |
| 1777887100 | 11.67° C | 58% | 995.9 hPa | 0 mm | - | - | - |
| 1777886800 | 11.67° C | 57% | 995.8 hPa | 0 mm | - | - | - |
| 1777886500 | 12.22° C | 55% | 995.7 hPa | 0 mm | - | - | - |
| 1777886200 | 12.22° C | 54% | 995.8 hPa | 0 mm | - | - | - |
| 1777885900 | 12.78° C | 53% | 995.9 hPa | 0 mm | - | - | - |
| 1777885600 | 12.78° C | 52% | 995.8 hPa | 0 mm | - | - | - |
| 1777885300 | 12.78° C | 50% | 995.8 hPa | 0 mm | - | - | - |
| 1777885000 | 13.33° C | 49% | 995.8 hPa | 0 mm | - | - | - |
| 1777884700 | 13.89° C | 48% | 995.9 hPa | 0 mm | - | - | - |
| 1777884400 | 13.89° C | 47% | 995.8 hPa | 0 mm | - | - | - |
| 1777884100 | 13.89° C | 47% | 995.9 hPa | 0 mm | - | - | - |
| 1777883800 | 13.89° C | 47% | 996 hPa | 0 mm | - | - | - |
| 1777883500 | 13.89° C | 46% | 996 hPa | 0 mm | - | - | - |
| 1777883200 | 14.44° C | 46% | 996 hPa | 0 mm | - | - | - |
* Rain latest hour (hover to see other rain measurements)
** Current wind speed in m/s (hover to see current wind gust speed)